Location: Bad Rothenbrunn
(47.2167°N, 11.2167°E)
Time: 05:34:23
(UTC+00:00)

USA 308 - Pass Details

Date: 03 March 2021
Orbit: 568 x 576 km, 54.0° (Epoch: 22 April)

Event Time Altitude Azimuth Distance (km) Brightness Sun altitude
Rises 18:26:45 0° 282° (WNW) 2,777 8.3 -14.9°
Reaches altitude 10° 18:29:11 10° 293° (WNW) 1,878 6.8 -15.3°
Maximum altitude 18:33:03 32° 357° (N) 985 4.2 -16.0°
Enters shadow 18:35:23 19° 49° (NE) 1,378 4.5 -16.4°
